| time (UTC) | temp F | wind direction | speed knots | gust knots | rain 1hr in | rain 24hr in | rain mn in | humidity % | barometer mb |
| 20260508013009 | 30 | 33 | 0.0 | 0.0 | 0.00 | 0.00 | 0.00 | 88 | 1020.3 |
| 20260508011506 | 30 | 33 | 0.0 | 0.0 | 0.00 | 0.00 | 0.00 | 88 | 1020.0 |
| 20260508010004 | 30 | 33 | 0.0 | 0.0 | 0.00 | 0.00 | 0.00 | 86 | 1019.8 |
| 20260508004502 | 30 | 33 | 0.0 | 0.0 | 0.00 | 0.00 | 0.00 | 85 | 1019.6 |
| 20260508003105 | 30 | 33 | 0.0 | 0.0 | 0.00 | 0.00 | 0.00 | 85 | 1019.5 |
| 20260508001557 | 31 | 33 | 0.0 | 0.0 | 0.00 | 0.00 | 0.00 | 85 | 1019.4 |
| 20260508000054 | 31 | 33 | 0.0 | 0.0 | 0.00 | 0.00 | 0.00 | 83 | 1019.2 |
| 20260507234551 | 32 | 33 | 0.0 | 0.0 | 0.00 | 0.00 | 0.00 | 83 | 1019.1 |
| 20260507233049 | 32 | 33 | 0.0 | 0.0 | 0.00 | 0.00 | 0.00 | 81 | 1018.9 |
| 20260507231548 | 33 | 33 | 0.0 | 0.0 | 0.00 | 0.00 | 0.00 | 80 | 1018.8 |
| 20260507230048 | 33 | 33 | 0.0 | 0.0 | 0.00 | 0.00 | 0.00 | 79 | 1018.7 |
| 20260507224544 | 33 | 33 | 0.0 | 0.0 | 0.00 | 0.00 | 0.00 | 78 | 1018.6 |
| 20260507223037 | 34 | 33 | 0.0 | 0.0 | 0.00 | 0.00 | 0.00 | 77 | 1018.5 |
| 20260507221540 | 35 | 33 | 0.0 | 0.0 | 0.00 | 0.00 | 0.00 | 76 | 1018.4 |
| 20260507220033 | 35 | 33 | 0.0 | 0.0 | 0.00 | 0.00 | 0.00 | 71 | 1018.3 |
| 20260507214534 | 35 | 33 | 0.0 | 0.0 | 0.00 | 0.00 | 0.00 | 67 | 1018.2 |
| 20260507213036 | 36 | 33 | 0.0 | 0.0 | 0.00 | 0.00 | 0.00 | 65 | 1017.9 |
| 20260507211528 | 37 | 33 | 0.0 | 0.0 | 0.00 | 0.00 | 0.00 | 64 | 1017.8 |
| 20260507210025 | 37 | 33 | 0.0 | 0.0 | 0.00 | 0.00 | 0.00 | 63 | 1017.6 |
| 20260507204524 | 38 | 33 | 0.0 | 0.0 | 0.00 | 0.00 | 0.00 | 64 | 1017.5 |
| 20260507203031 | 39 | 53 | 0.0 | 0.0 | 0.00 | 0.00 | 0.00 | 59 | 1017.3 |
| 20260507201525 | 40 | 53 | 0.0 | 0.9 | 0.00 | 0.00 | 0.00 | 59 | 1017.3 |
| 20260507200020 | 41 | 53 | 0.0 | 0.0 | 0.00 | 0.00 | 0.00 | 53 | 1017.0 |
| 20260507194519 | 42 | 53 | 0.0 | 0.0 | 0.00 | 0.00 | 0.00 | 53 | 1016.8 |
| 20260507193018 | 44 | 53 | 0.0 | 0.0 | 0.00 | 0.00 | 0.00 | 45 | 1016.6 |
| 20260507191515 | 46 | 49 | 0.0 | 0.9 | 0.00 | 0.00 | 0.00 | 43 | 1016.3 |
| 20260507190012 | 47 | 94 | 0.0 | 0.0 | 0.00 | 0.00 | 0.00 | 40 | 1016.0 |
| 20260507184511 | 50 | 94 | 0.0 | 0.0 | 0.00 | 0.00 | 0.00 | 34 | 1015.9 |
| 20260507183012 | 53 | 94 | 0.0 | 0.9 | 0.00 | 0.00 | 0.00 | 30 | 1015.8 |
| 20260507181509 | 55 | 91 | 0.0 | 0.9 | 0.00 | 0.00 | 0.00 | 27 | 1015.7 |
| 20260507180011 | 56 | 99 | 0.0 | 1.7 | 0.00 | 0.00 | 0.00 | 25 | 1015.6 |
| 20260507174507 | 57 | 135 | 0.0 | 2.6 | 0.00 | 0.00 | 0.00 | 23 | 1015.4 |
| 20260507173014 | 58 | 108 | 0.9 | 4.3 | 0.00 | 0.00 | 0.00 | 21 | 1015.3 |
| 20260507171508 | 58 | 145 | 0.0 | 3.5 | 0.00 | 0.00 | 0.00 | 20 | 1015.1 |
| 20260507170003 | 59 | 146 | 2.6 | 4.3 | 0.00 | 0.00 | 0.00 | 20 | 1015.0 |
| 20260507164605 | 60 | 69 | 0.9 | 3.5 | 0.00 | 0.00 | 0.00 | 19 | 1014.9 |
| 20260507163059 | 59 | 146 | 0.0 | 6.1 | 0.00 | 0.00 | 0.00 | 20 | 1014.8 |
| 20260507161558 | 59 | 53 | 1.7 | 6.1 | 0.00 | 0.00 | 0.00 | 21 | 1014.8 |
| 20260507160057 | 59 | 99 | 0.0 | 6.1 | 0.00 | 0.00 | 0.00 | 23 | 1014.7 |
| 20260507154555 | 60 | 125 | 2.6 | 7.8 | 0.00 | 0.00 | 0.00 | 23 | 1014.6 |
| 20260507153052 | 60 | 128 | 0.9 | 3.5 | 0.00 | 0.00 | 0.00 | 23 | 1014.6 |
| 20260507151550 | 59 | 153 | 1.7 | 5.2 | 0.00 | 0.00 | 0.00 | 25 | 1014.5 |
| 20260507150049 | 59 | 106 | 1.7 | 7.0 | 0.00 | 0.00 | 0.00 | 26 | 1014.5 |
| 20260507144548 | 59 | 146 | 0.0 | 9.6 | 0.00 | 0.00 | 0.00 | 27 | 1014.3 |
| 20260507143052 | 59 | 134 | 0.0 | 7.0 | 0.00 | 0.00 | 0.00 | 30 | 1014.1 |
| 20260507141552 | 60 | 150 | 1.7 | 9.6 | 0.00 | 0.00 | 0.00 | 31 | 1014.1 |
| 20260507140044 | 60 | 352 | 5.2 | 12.2 | 0.00 | 0.00 | 0.00 | 31 | 1013.9 |
| 20260507134542 | 60 | 320 | 1.7 | 5.2 | 0.00 | 0.00 | 0.00 | 35 | 1013.9 |
| 20260507133059 | 61 | 318 | 2.6 | 7.8 | 0.00 | 0.00 | 0.00 | 33 | 1013.8 |
| 20260507131548 | 61 | 333 | 0.9 | 5.2 | 0.00 | 0.00 | 0.00 | 35 | 1013.7 |
| 20260507130051 | 58 | 130 | 0.0 | 1.7 | 0.00 | 0.00 | 0.00 | 33 | 1013.7 |
| 20260507124536 | 57 | 166 | 0.9 | 4.3 | 0.00 | 0.00 | 0.00 | 37 | 1013.7 |
| 20260507123036 | 57 | 144 | 1.7 | 5.2 | 0.00 | 0.00 | 0.00 | 37 | 1013.6 |
| 20260507121534 | 58 | 176 | 1.7 | 7.0 | 0.00 | 0.00 | 0.00 | 36 | 1013.5 |
| 20260507120042 | 60 | 126 | 0.0 | 7.0 | 0.00 | 0.00 | 0.00 | 34 | 1013.4 |
| 20260507114554 | 59 | 154 | 0.9 | 7.8 | 0.00 | 0.00 | 0.00 | 37 | 1013.4 |
| 20260507113030 | 59 | 323 | 4.3 | 9.6 | 0.00 | 0.00 | 0.00 | 38 | 1013.4 |
| 20260507111534 | 58 | 177 | 0.0 | 0.9 | 0.00 | 0.00 | 0.00 | 36 | 1013.5 |
| 20260507110027 | 58 | 177 | 0.9 | 4.3 | 0.00 | 0.00 | 0.00 | 38 | 1013.4 |
| 20260507104526 | 56 | 164 | 1.7 | 3.5 | 0.00 | 0.00 | 0.00 | 39 | 1013.3 |
| 20260507103023 | 58 | 233 | 2.6 | 7.8 | 0.00 | 0.00 | 0.00 | 38 | 1013.1 |
| 20260507101522 | 56 | 122 | 0.9 | 5.2 | 0.00 | 0.00 | 0.00 | 37 | 1013.1 |
| 20260507100019 | 57 | 151 | 0.0 | 7.0 | 0.00 | 0.00 | 0.00 | 37 | 1013.0 |
| 20260507094517 | 56 | 170 | 1.7 | 4.3 | 0.00 | 0.00 | 0.00 | 38 | 1012.9 |
| 20260507093017 | 56 | 106 | 0.0 | 7.0 | 0.00 | 0.00 | 0.00 | 39 | 1012.9 |
| 20260507091518 | 55 | 150 | 2.6 | 5.2 | 0.00 | 0.00 | 0.00 | 43 | 1013.0 |
| 20260507090021 | 55 | 157 | 0.9 | 4.3 | 0.00 | 0.00 | 0.00 | 43 | 1012.9 |
| 20260507084510 | 55 | 140 | 0.0 | 3.5 | 0.00 | 0.00 | 0.00 | 45 | 1013.0 |
| 20260507083006 | 54 | 158 | 0.0 | 2.6 | 0.00 | 0.00 | 0.00 | 49 | 1012.9 |
| 20260507081504 | 54 | 131 | 0.9 | 2.6 | 0.00 | 0.00 | 0.00 | 50 | 1012.8 |
| 20260507080003 | 53 | 33 | 0.0 | 2.6 | 0.00 | 0.00 | 0.00 | 51 | 1012.7 |
| 20260507074600 | 54 | 158 | 0.0 | 0.9 | 0.00 | 0.00 | 0.00 | 50 | 1012.7 |
| 20260507073106 | 52 | 143 | 0.0 | 2.6 | 0.00 | 0.00 | 0.00 | 54 | 1012.6 |
| 20260507071556 | 51 | 150 | 0.0 | 3.5 | 0.00 | 0.00 | 0.00 | 54 | 1012.6 |
| 20260507070055 | 53 | 112 | 0.0 | 1.7 | 0.00 | 0.00 | 0.00 | 53 | 1012.6 |
| 20260507064552 | 50 | 78 | 0.0 | 1.7 | 0.00 | 0.00 | 0.00 | 57 | 1012.5 |
| 20260507063056 | 50 | 87 | 0.0 | 0.9 | 0.00 | 0.00 | 0.00 | 56 | 1012.5 |
| 20260507061549 | 48 | 30 | 0.0 | 1.7 | 0.00 | 0.00 | 0.00 | 58 | 1012.4 |
| 20260507060050 | 47 | 126 | 0.0 | 2.6 | 0.00 | 0.00 | 0.00 | 60 | 1012.4 |
| 20260507054541 | 45 | 73 | 1.7 | 4.3 | 0.00 | 0.00 | 0.00 | 61 | 1012.2 |
| 20260507053039 | 44 | 334 | 2.6 | 4.3 | 0.00 | 0.00 | 0.00 | 62 | 1012.2 |
| 20260507051538 | 44 | 329 | 2.6 | 5.2 | 0.00 | 0.00 | 0.00 | 62 | 1012.1 |
| 20260507050035 | 42 | 94 | 0.0 | 0.0 | 0.00 | 0.00 | 0.00 | 68 | 1012.0 |
| 20260507044534 | 39 | 106 | 0.0 | 0.0 | 0.00 | 0.00 | 0.00 | 71 | 1012.0 |
| 20260507043033 | 38 | 106 | 0.0 | 0.0 | 0.00 | 0.00 | 0.00 | 74 | 1011.8 |
| 20260507041531 | 37 | 106 | 0.0 | 0.0 | 0.00 | 0.00 | 0.00 | 73 | 1011.8 |
| 20260507040030 | 37 | 106 | 0.0 | 0.0 | 0.00 | 0.00 | 0.00 | 73 | 1011.7 |
| 20260507034530 | 37 | 353 | 0.0 | 0.0 | 0.00 | 0.00 | 0.00 | 71 | 1011.7 |
| 20260507033030 | 37 | 353 | 0.0 | 0.0 | 0.00 | 0.00 | 0.00 | 71 | 1011.4 |
| 20260507031526 | 38 | 329 | 0.0 | 1.7 | 0.00 | 0.00 | 0.00 | 68 | 1011.3 |
| 20260507030026 | 37 | 329 | 0.0 | 1.7 | 0.00 | 0.00 | 0.00 | 72 | 1011.2 |
| 20260507024525 | 36 | 308 | 0.0 | 0.0 | 0.00 | 0.00 | 0.00 | 74 | 1011.4 |
| 20260507023023 | 35 | 307 | 0.0 | 0.9 | 0.00 | 0.00 | 0.00 | 74 | 1011.4 |
| 20260507021524 | 35 | 304 | 0.0 | 0.9 | 0.00 | 0.00 | 0.00 | 74 | 1011.4 |
| 20260507020028 | 35 | 304 | 0.0 | 0.0 | 0.00 | 0.00 | 0.00 | 70 | 1011.4 |
| 20260507014526 | 37 | 304 | 0.0 | 0.0 | 0.00 | 0.00 | 0.00 | 66 | 1011.3 |